SCP
0 0 0 0 0 0 0 0 0 0 0 0 0 0 0 0 0 0 0 0 0 0 0 0 0 0 0 0 0 0 0 0 0 0 0 0 0 0 0 0 0 0 0 0
0 0 0 0 0 0 0 0 0 0 0 0 0 0 0 0 0 0 0 0 0 0 0 0 0 0 0 0 0 0 0 0 0 0 0 0 0 0 0 0 0 0 0 0
0 0 0 0 0 0 0 0 0 0 0 0 0 0 0 0 0 0 0 0 0 0 0 0 0 -0 0 0 0 0 0 0 0 0 0 0 0 0 0 0 0 0 0 0
0 0 0 0 0 0 0 0 0 0 0 0 0 0 0 0 0 0 0 0 0 0 0 0 0 0 0 0 0 0 0 0 0 0 0 0 0 0 0 0 0 0 0 0
-0 -0 -0 -0 0 0 0 0 0 0 0 0 0 0 0 0 0 0 0 -0 -0 0 0 0 0 0 0 0 0 0 0 0 0 0 0 0 0 0 0 0 0 0 0 0
-0 -0 -0 -0 0 0 0 0 0 0 0 0 0 0 0 0 0 0 0 -0 -0 0 0 0 0 0 0 0 0 0 0 0 0 0 0 0 0 0 0 0 0 0 0 0
-0 -0 -0 -0 0 0 0 0 0 0 0 0 0 0 0 0 0 0 0 -0 0 0 0 0 0 0 0 0 0 0 0 0 0 0 0 0 0 0 0 0 0 0 0 0
-0 -0 -0 -0 0 0 0 0 0 0 0 0 0 0 0 0 0 0 0 0 0 0 0 0 0 0 0 0 0 0 0 0 0 0 0 0 0 0 0 0 0 0 0 0
-0 -0 -0 0 0 0 0 0 0 0 0 0 0 0 0 0 0 0 0 0 0 0 0 0 0 0 0 0 0 0 0 0 0 0 0 0 0 0 0 0 0 0 0 0
-0 -0 0 0 0 0 0 0 0 0 0 0 0 0 0 0 0 0 0 0 0 0 0 0 0 0 0 0 0 0 0 0 0 0 0 0 0 0 0 0 0 0 0 0
-0 -0 0 0 0 0 0 0 0 0 0 0 0 0 0 0 0 0 0 0 0 0 0 0 0 0 0 0 0 0 0 0 0 0 0 0 0 0 0 0 0 0 0 0
0 0 0 0 0 -0 -0 -0 0 0 0 0 0 0 0 0 0 0 0 0 0 0 0 0 0 0 0 0 0 0 0 0 0 0 0 0 0 0 0 0 0 0 0 0
0 0 0 0 0 -0 -0 0 0 0 0 0 0 0 0 0 0 0 0 0 0 0 0 0 0 0 0 0 0 0 0 0 0 0 0 0 0 0 0 0 0 0 0 0
0 0 0 0 0 0 0 0 0 0 0 0 0 0 0 0 0 0 0 0 0 0 0 0 0 0 0 0 0 0 0 0 0 0 0 0 0 0 0 0 0 0 0 0
0 0 0 0 0 0 0 0 0 0 0 0 0 0 0 0 0 0 0 0 0 0 0 0 0 0 0 0 0 0 0 0 0 0 0 0 0 0 0 0 0 0 0 0
0 0 0 0 0 0 0 0 0 0 0 0 0 0 0 0 0 0 0 0 0 0 0 0 0 0 0 0 0 0 0 0 0 0 0 0 0 0 0 0 0 0 0 0
0 0 0 0 0 0 0 0 0 0 0 0 0 0 0 0 0 0 0 0 0 0 0 0 0 0 0 0 0 0 0 0 0 0 0 0 0 0 0 0 0 0 0 0
0 0 0 0 0 0 0 0 0 0 0 0 0 0 0 0 0 0 0 0 0 0 0 0 0 0 0 0 0 0 0 0 0 0 0 0 0 0 0 0 0 0 0 0
0 0 0 0 0 0 0 0 0 0 0 0 0 0 0 0 0 0 0 0 0 0 0 0 0 0 0 0 0 0 0 0 0 0 0 0 0 0 0 0 0 0 0 0
0 0 0 0 0 0 0 0 0 0 0 0 0 0 0 0 0 0 0 0 0 0 0 0 0 0 0 0 0 0 0 0 0 0 0 0 0 0 0 0 0 0 0 0
0 0 0 0 0 0 0 0 0 0 0 0 0 0 0 0 0 0 0 0 0 0 0 0 0 0 0 0 0 0 0 0 0 0 0 0 0 0 0 0 0 0 0 0
0 0 0 0 0 0 0 0 0 0 0 0 0 0 0 0 0 0 0 0 0 0 0 0 0 0 0 0 0 0 0 0 0 0 0 0 0 0 0 0 0 0 0 0
0 0 0 0 0 0 0 0 0 0 0 0 0 0 0 0 0 0 0 0 0 0 0 0 0 0 0 0 0 0 0 0 0 0 0 0 0 0 0 0 0 0 0 0
0 0 0 0 0 0 0 0 0 0 0 0 0 0 0 0 0 0 0 0 0 0 0 0 0 0 0 0 0 0 0 0 0 0 0 0 0 0 0 0 0 0 0 0
0 0 0 0 0 0 0 0 0 0 0 0 0 0 0 0 0 0 0 0 0 0 0 0 0 0 0 0 0 0 0 0 0 0 0 0 0 0 0 0 0 0 0 0
0 0 0 0 0 0 0 0 0 0 0 0 0 0 0 0 0 0 0 0 0 0 0 0 0 0 0 0 0 0 0 0 0 0 0 0 0 0 0 0 0 0 0 0
0 0 0 0 0 0 0 0 0 0 0 0 0 0 0 0 0 0 0 0 0 0 0 0 0 0 0 0 0 0 0 0 0 0 0 0 0 0 0 0 0 0 0 0
Wind_Speed
2 2 2 3 5 5 5 4 3 4 5 4 4 5 5 5 6 7 7 8 8 8 7 7 7 7 7 7 6 6 5 5 5 5 4 4 4 3 2 1 0 1 2 3
1 0 1 2 4 4 4 5 3 4 5 4 5 5 6 5 5 6 6 7 7 7 7 7 7 7 7 7 7 6 5 5 5 4 4 4 3 3 2 1 1 1 2 3
2 2 2 1 3 3 3 3 3 3 3 3 4 5 4 4 5 5 5 6 6 6 5 5 6 6 6 6 6 6 5 5 5 5 4 4 4 3 2 2 1 1 2 3
2 3 1 1 2 2 2 3 3 3 3 4 4 4 4 5 4 5 5 5 5 5 5 5 4 5 5 5 5 5 5 6 6 6 5 4 4 4 3 2 2 2 2 3
2 2 1 4 2 1 1 1 2 2 3 3 3 2 3 4 5 4 4 4 4 4 4 4 5 5 5 5 5 5 5 5 6 6 5 5 4 4 4 3 3 3 2 3
2 2 1 2 2 1 1 1 2 2 2 2 1 0 1 3 3 3 3 3 4 4 4 5 5 5 5 5 5 5 5 5 5 5 5 5 5 5 4 3 3 3 3 3
2 2 1 2 1 0 0 1 2 3 3 3 2 1 1 2 3 3 3 3 3 4 4 4 5 4 4 4 5 5 5 5 5 5 6 5 5 4 4 4 3 4 4 4
2 3 3 2 1 1 1 2 3 3 3 3 2 2 2 2 2 3 3 3 3 3 4 4 4 4 4 5 5 5 5 6 6 6 6 5 5 5 4 4 4 4 4 4
1 2 2 2 2 2 2 2 2 3 3 2 1 1 1 2 2 2 2 3 3 3 4 4 4 4 5 5 5 5 5 6 6 6 6 5 5 5 4 4 4 4 4 4
3 2 3 3 2 2 2 2 3 3 2 1 1 1 2 2 2 3 3 3 3 4 5 5 5 5 5 6 5 5 6 6 6 6 6 6 5 4 4 4 5 5 5 5
4 3 2 3 4 3 3 3 2 2 1 1 1 2 2 3 3 3 3 3 3 4 5 6 6 6 6 5 5 6 6 6 6 6 6 6 6 5 6 5 6 7 5 5
5 2 2 2 4 5 4 3 2 1 0 0 1 2 3 3 3 3 4 4 4 5 6 6 6 6 6 5 5 6 6 6 5 5 5 5 6 6 9 10 13 13 12 10
2 2 3 4 3 3 3 2 2 1 1 2 2 2 3 3 4 4 5 5 5 6 6 7 7 7 6 6 6 6 7 7 5 6 6 6 6 6 7 8 11 12 13 13
3 3 2 2 3 3 3 2 1 0 1 1 2 2 3 4 4 5 6 6 6 6 7 7 7 8 7 6 6 7 7 8 8 6 6 6 6 6 6 7 7 6 8 12
3 3 3 3 3 3 2 2 1 2 2 2 2 2 3 4 5 6 6 6 6 7 7 7 8 8 6 6 7 8 7 6 6 6 6 7 6 6 6 7 7 6 5 6
3 3 3 3 3 2 2 2 2 2 2 2 3 3 4 5 6 6 6 6 6 7 8 8 8 8 7 7 8 7 7 11 10 7 6 6 6 6 7 7 7 6 6 5
6 5 4 4 3 3 2 2 1 1 2 2 3 4 5 5 6 6 6 6 6 7 8 8 8 7 8 8 8 7 7 8 12 8 6 7 6 6 6 7 7 6 6 6
5 4 4 4 3 2 1 1 0 1 2 2 3 4 5 5 6 7 7 7 7 8 7 6 7 8 8 9 8 6 6 7 7 7 7 6 7 6 6 7 7 7 5 6
4 4 4 3 3 2 1 1 0 1 2 2 3 4 5 6 6 7 7 7 8 8 7 7 13 10 9 10 11 6 7 7 7 7 7 10 9 6 6 6 6 6 5 5
5 5 5 4 3 2 1 1 1 1 2 2 3 4 5 6 6 6 7 7 6 5 7 9 9 8 8 9 12 6 7 7 7 7 7 6 6 6 5 6 5 5 5 4
5 5 4 4 2 2 1 1 1 2 3 3 3 4 6 6 6 6 6 7 6 6 8 12 8 7 8 10 12 6 6 7 7 7 6 6 6 6 5 5 5 5 5 4
4 4 4 3 2 1 1 1 1 2 3 3 4 4 5 6 6 6 6 5 6 12 9 6 6 10 13 13 6 6 7 7 6 6 6 5 6 6 5 5 5 5 4 4
4 4 3 3 2 1 1 1 1 2 2 3 4 4 5 5 5 6 7 5 6 12 9 7 12 17 18 9 6 6 7 7 7 6 6 5 5 5 5 5 4 4 3 3
4 4 3 2 2 1 0 1 1 2 3 3 3 4 4 5 5 4 5 10 14 14 8 11 17 18 15 6 6 6 6 6 6 6 6 5 5 4 4 5 4 4 3 3
4 4 3 2 1 1 0 1 2 2 2 3 3 4 3 3 4 5 6 7 12 13 8 11 16 16 9 6 6 6 6 6 7 6 5 5 5 5 4 4 4 4 3 3
3 3 2 2 1 1 0 0 1 2 2 3 3 3 3 3 4 5 5 7 9 11 8 6 7 9 6 6 7 7 6 7 7 6 6 5 5 5 5 5 6 4 3 3
3 3 2 1 1 1 0 0 1 2 2 3 4 4 4 4 4 5 6 6 6 6 6 6 6 6 6 6 6 6 6 5 5 6 5 5 5 4 5 5 4 4 3 3
Wind_Direction
6 2 28 12 6 13 20 15 61 76 81 94 87 82 74 65 59 54 47 41 36 32 27 24 23 20 18 15 12 10 15 16 12 7 6 7 7 7 6 11 149 177 178 181
318 52 8 17 13 15 17 19 60 81 72 76 81 75 65 57 53 49 44 38 33 28 24 19 17 12 8 7 6 8 9 6 3 4 4 3 359 355 354 347 317 212 201 193
327 319 298 23 14 14 42 25 14 49 85 87 81 75 66 56 50 46 38 32 26 20 16 13 10 7 2 356 358 4 4 360 358 357 356 351 345 341 332 320 297 253 224 207
314 332 359 119 58 22 47 42 43 70 82 80 84 77 65 61 55 43 32 22 15 10 5 3 3 1 353 352 355 358 358 356 354 350 344 340 336 326 315 307 286 268 251 226
328 303 221 133 106 24 358 63 49 76 89 90 100 107 75 59 50 44 30 18 7 358 354 354 357 356 352 349 351 353 349 346 341 337 330 326 320 312 307 300 288 276 265 245
316 311 306 117 107 41 338 175 64 72 84 82 33 351 70 51 42 32 25 13 1 352 351 351 348 351 349 340 342 339 333 327 323 320 315 310 304 298 291 283 273 268 261 250
272 274 283 102 145 256 250 172 85 61 64 64 62 81 83 40 29 22 13 0 353 345 339 335 336 339 329 324 322 316 314 310 308 307 303 296 294 288 279 274 269 257 251 248
234 248 244 130 145 147 133 106 89 71 63 63 69 64 41 17 360 357 352 346 345 336 323 322 325 323 312 304 302 307 309 307 305 303 300 298 291 287 276 264 261 256 251 251
237 213 140 149 114 103 90 100 88 86 69 64 50 27 348 335 336 335 335 333 334 322 312 313 318 319 310 305 310 310 306 301 298 299 297 294 288 284 281 269 260 256 249 248
273 233 168 168 149 128 103 101 88 86 75 46 348 330 326 322 322 321 320 317 316 312 308 308 311 310 301 302 305 302 300 300 298 297 296 294 290 281 271 264 263 259 254 252
253 231 181 190 177 157 133 115 107 96 79 39 336 316 315 309 309 310 310 308 308 302 297 297 302 301 300 299 299 295 292 291 294 291 289 288 283 276 274 261 261 265 256 250
222 199 173 159 147 146 151 160 157 153 273 323 297 299 309 306 307 308 307 305 301 297 295 296 299 297 297 297 294 291 291 292 289 288 285 283 285 286 277 273 278 276 271 266
146 92 87 106 111 126 141 140 131 156 244 286 294 300 308 304 305 304 303 301 297 296 295 296 297 296 297 298 297 290 286 287 286 285 285 283 281 282 289 289 279 277 276 273
127 121 137 159 150 134 122 114 117 213 265 279 299 310 305 300 300 300 298 296 296 295 295 295 295 294 298 302 300 293 290 287 287 281 280 280 277 275 276 282 287 281 272 271
179 168 153 127 121 122 121 128 198 255 272 290 297 295 297 297 295 294 296 298 300 299 298 300 299 300 307 307 301 296 292 286 282 280 280 280 278 275 274 272 272 276 277 274
159 149 142 149 166 165 169 194 235 265 290 303 308 308 306 301 298 298 300 306 307 304 303 303 300 303 312 309 304 297 290 288 289 284 281 280 278 276 276 274 272 270 268 268
154 178 188 196 197 194 194 203 233 279 307 312 313 317 315 310 306 305 309 312 306 301 300 299 301 309 313 309 303 296 292 291 293 289 280 278 277 275 276 276 274 271 265 261
166 161 159 161 170 182 192 188 268 304 305 311 319 317 313 309 304 305 308 311 310 304 299 304 313 317 312 307 302 295 292 290 289 289 286 282 279 274 273 274 275 274 271 267
134 131 128 123 123 131 137 131 1 335 329 328 318 307 301 298 300 304 311 313 310 306 310 320 322 320 310 306 307 296 292 292 292 290 288 289 287 278 275 276 276 276 277 271
115 113 110 104 95 101 108 79 20 333 321 319 311 307 306 306 310 312 310 302 291 295 311 318 320 313 310 308 313 302 298 295 294 294 292 288 286 285 283 282 281 280 278 272
128 123 120 118 111 102 104 83 21 320 319 320 310 303 303 306 310 310 308 305 306 315 319 320 320 311 310 314 315 307 303 300 299 298 297 298 298 295 292 292 292 292 290 286
134 130 127 125 121 109 81 66 20 320 318 316 311 309 310 312 314 309 295 292 309 322 324 313 311 312 319 322 312 307 305 303 301 300 297 297 298 298 298 298 295 295 294 293
131 129 129 127 127 122 48 40 354 316 305 304 307 309 309 307 309 310 311 314 318 322 324 310 315 321 326 326 313 310 309 309 308 306 302 297 296 298 298 297 294 294 295 298
129 126 123 116 116 119 313 318 318 300 292 291 293 297 301 307 307 299 299 315 322 322 319 317 324 327 331 325 313 311 311 309 308 308 309 308 303 302 301 303 305 305 303 303
131 130 132 137 148 181 242 312 308 305 313 312 309 308 303 296 299 307 311 313 319 324 321 323 328 331 331 319 317 315 313 313 317 320 318 319 319 317 316 315 313 311 312 315
141 145 147 154 152 141 119 316 309 315 321 318 315 311 311 308 305 306 309 311 315 323 322 317 320 324 322 319 318 317 317 319 322 323 320 320 319 320 320 321 320 318 318 320
140 138 139 148 149 150 182 251 286 302 313 312 310 312 316 317 316 317 317 316 317 318 317 319 320 319 318 318 318 317 318 319 320 320 320 320 320 320 320 320 321 320 321 325